Track STARLINK-30085 now! 10-day predictions STARLINK-30085 is classified as:
1 56709U 23067X 24325.38364043 .00002200 00000-0 17785-3 0 9997 2 56709 43.0039 331.5726 0000877 272.7375 87.3367 15.02540204 84054